Showing default

IRIDIUM 106, 41917

Orbit data source: Space-Track

IRIDIUM 106, 41917 is a payload satellite owned by Iridium (US) in LEO that was launched on Sat, 14 Jan 2017 UTC via an FALCON 9 launch vehicle from the Air Force Western Test Range (AFWTR). Payload-class satellites include a variety of spacecraft equipped with specific instruments for various scientific and technological missions. These include communications satellites like Starlink; space stations such as the ISS; scientific satellites like the Hubble; Earth observation satellites from companies like Planet Labs, Umbra, and HawkEye 360; GPS; miniature CubeSats for education and research; and military/defense satellites.

Loading next visibility...
Identifier
41917, 2017-003A
Orbit
LEO
Country
Flag of USUS
Related business
Manufacturer
OATK SSG Gilbert
Mission
Operational Commercial Communications
Bus & Motor
ELITEBUS, Unknown motor
Mass
860 kg wet, 700 kg dry
Launch date (UTC)
2017-01-14 (9 years ago)
Launch vehicle
FALCON 9
Launch site
Air Force Western Test Range (AFWTR)
Object type
Payload
Rocket body
Debris
Shape & HBR
Trap Box + 2 Pan, 4.8 m
Radar Cross Section
10.154 m², Large (>1 m²)

Expand to show TLE details & history
Last TLE update: 7 hours ago

TLE from 7 hours ago
0 IRIDIUM 106
1 41917U 17003A   26130.21118461  .00000042  00000-0  79128-5 0  9997
2 41917  86.3934 104.4334 0002440  78.7058 281.4412 14.34217463487760
Epoch: 2026-05-10T05:04Z
TLE epoch observation values (Epoch: 2026-05-10T05:04:06.350Z)
Latitude
-0°
Longitude
160.38942°
Altitude
780.373 km
Speed
7.464 km/s
True Right ascension
06h 57m 44s
True Declination
0° 00' 00"
Sunlit
Object was in daylight at epoch
Visualization orbit readout
Latitude
Unknown
Longitude
Unknown
Altitude
Unknown
Speed
Unknown
Apparent Right ascension
Unknown
Apparent Declination
Unknown
Sunlit
N/A
Visualization observer readout
Local Sidereal Time
20:10:36
Azimuth
Unknown
Elevation
Unknown
Doppler factor
Unknown
Orbital elements
Apogee altitude
776.378 km
Perigee altitude
772.887 km
Semi-major axis
7,152.77 km
Eccentricity
0.00024
Inclination
86.3934°
RAAN
104.4334°
Arg. of periapsis
78.7058°
True anomaly
281.41379°
Mean anomaly
281.4412°
Eccentric anomaly
281.4275°
Mean motion
3.58783 °/min
Orbital period
100.34 mins
BSTAR
0.0000079128
Loading maneuver chart data...
Computing Atmospheric mass density...
Loading historical data...
Loading historical data...
Loading historical data...
Loading historical data...
Loading historical data...
Loading historical data...
Loading historical data...

Documentation

Showing up to 5 results
|